FW5443 Weather Reports


time (UTC)temp
C
wind
direction
speed
KPH
gust
KPH
rain 1hr
cm
rain 24hr
cm
rain mn
cm
humidity
%
barometer
mb
20260507085529 10 0 0.0 4.8 0.00 0.00 0.00 87 1007.7
20260507085029 10 119 0.0 4.8 0.00 0.00 0.00 87 1007.6
20260507084544 10 50 0.0 4.8 0.00 0.00 0.00 88 1007.8
20260507084029 11 232 0.0 4.8 0.00 0.00 0.00 88 1007.7
20260507083529 11 0 0.0 1.6 0.00 0.00 0.00 88 1007.6
20260507083044 11 91 0.0 3.2 0.00 0.00 0.00 88 1007.5
20260507082528 11 0 0.0 3.2 0.00 0.00 0.00 87 1007.3
20260507082028 11 0 0.0 4.8 0.00 0.00 0.00 87 1007.1
20260507081542 11 0 0.0 4.8 0.00 0.00 0.00 87 1007.1
20260507081033 11 171 0.0 4.8 0.00 0.00 0.00 86 1007.1
20260507080529 11 0 0.0 4.8 0.00 0.00 0.00 86 1007.3
20260507080044 11 0 0.0 6.4 0.00 0.00 0.00 85 1007.5
20260507075529 11 0 0.0 6.4 0.00 0.00 0.00 85 1007.6
20260507075029 11 0 0.0 4.8 0.00 0.00 0.00 84 1007.4
20260507074547 11 0 0.0 4.8 0.00 0.00 0.00 84 1007.3
20260507074030 11 0 0.0 3.2 0.00 0.00 0.00 83 1007.6
20260507073529 11 0 0.0 3.2 0.00 0.00 0.00 83 1007.7
20260507073049 11 0 0.0 3.2 0.00 0.00 0.00 83 1007.3
20260507072529 11 0 0.0 3.2 0.00 0.00 0.00 83 1006.7
20260507072028 11 0 0.0 3.2 0.00 0.00 0.00 83 1006.6
20260507071543 11 0 0.0 3.2 0.00 0.00 0.00 83 1006.8
20260507071029 11 0 0.0 1.6 0.00 0.00 0.00 83 1006.8
20260507070530 11 0 0.0 1.6 0.00 0.00 0.00 83 1006.8
20260507070051 11 0 0.0 3.2 0.00 0.00 0.00 83 1007.0
20260507065533 11 0 0.0 4.8 0.00 0.00 0.00 83 1006.7
20260507065028 11 0 0.0 4.8 0.00 0.00 0.00 83 1006.7
20260507064546 11 150 0.0 6.4 0.00 0.00 0.00 84 1006.8
20260507064032 11 0 0.0 6.4 0.00 0.00 0.00 84 1006.8
20260507063530 11 360 1.6 6.4 0.00 0.00 0.00 84 1006.9
20260507063041 11 0 0.0 8.0 0.00 0.00 0.00 85 1006.7
20260507062529 12 15 0.0 8.0 0.00 0.00 0.00 85 1006.9
20260507062029 12 46 1.6 4.8 0.00 0.00 0.00 86 1006.7
20260507061544 12 35 0.0 6.4 0.00 0.00 0.00 88 1006.5
20260507061029 12 0 1.6 6.4 0.00 0.00 0.00 88 1006.6
20260507060529 12 0 0.0 6.4 0.00 0.00 0.00 88 1006.6
20260507060045 12 0 0.0 6.4 0.00 0.00 0.00 88 1006.6
20260507055526 12 360 0.0 3.2 0.00 0.00 0.00 88 1006.7
20260507055028 12 0 0.0 3.2 0.00 0.00 0.00 88 1006.8
20260507054541 12 0 0.0 4.8 0.00 0.00 0.00 88 1006.9
20260507054029 12 270 0.0 4.8 0.00 0.00 0.00 88 1006.9
20260507053530 12 306 0.0 6.4 0.00 0.00 0.00 89 1007.1
20260507053041 12 52 0.0 6.4 0.00 0.00 0.00 89 1007.0
20260507052525 12 0 0.0 6.4 0.00 0.00 0.00 89 1006.9
20260507052029 12 107 0.0 4.8 0.00 0.00 0.00 89 1006.9
20260507051542 12 0 0.0 4.8 0.00 0.00 0.00 89 1006.6
20260507051029 12 96 0.0 8.0 0.00 0.00 0.00 89 1006.7
20260507050529 12 0 0.0 8.0 0.00 0.00 0.00 89 1006.6
20260507050047 13 177 0.0 6.4 0.00 0.00 0.00 89 1006.8
20260507045530 13 57 1.6 4.8 0.00 0.00 0.00 89 1007.0
20260507045027 13 205 0.0 4.8 0.00 0.00 0.00 90 1007.0
20260507044556 13 0 0.0 4.8 0.00 0.00 0.00 89 1007.0
20260507044032 13 0 0.0 9.7 0.00 0.00 0.00 89 1006.8
20260507043528 14 45 1.6 9.7 0.00 0.00 0.00 90 1006.7
20260507043042 14 51 1.6 6.4 0.00 0.00 0.00 91 1006.6
20260507042526 15 69 0.0 6.4 0.00 0.00 0.00 92 1006.8
20260507042031 15 0 1.6 6.4 0.00 0.00 0.00 92 1006.8
20260507041545 15 96 0.0 4.8 0.00 0.00 0.00 92 1006.7
20260507041029 15 5 0.0 4.8 0.00 0.00 0.00 92 1006.7
20260507040528 15 15 0.0 3.2 0.00 0.00 0.00 92 1006.8
20260507040045 15 0 0.0 6.4 0.00 0.00 0.00 91 1006.9
20260507035531 15 0 0.0 6.4 0.00 0.00 0.00 91 1006.8
20260507035029 15 63 0.0 6.4 0.00 0.00 0.00 91 1006.7
20260507034546 15 187 1.6 6.4 0.00 0.00 0.00 91 1006.4
20260507034029 15 162 0.0 6.4 0.00 0.00 0.00 91 1006.6
20260507033529 15 0 1.6 12.9 0.00 0.00 0.00 91 1006.3
20260507033057 15 144 3.2 12.9 0.00 0.00 0.00 92 1006.7
20260507032530 15 0 0.0 8.0 0.00 0.00 0.00 92 1006.5
20260507032038 15 147 1.6 8.0 0.00 0.00 0.00 92 1006.3
20260507031554 15 0 1.6 8.0 0.00 0.00 0.00 92 1006.0
20260507031026 15 167 1.6 8.0 0.00 0.00 0.00 92 1005.9
20260507030530 15 175 1.6 8.0 0.00 0.00 0.00 92 1005.8
20260507025529 15 178 1.6 9.7 0.00 0.00 0.00 92 1005.6
20260507025029 15 119 0.0 9.7 0.00 0.00 0.00 92 1005.7
20260507024601 15 0 0.0 11.3 0.00 0.00 0.00 92 1005.8
20260507024030 15 181 1.6 11.3 0.00 0.00 0.00 92 1005.8
20260507023528 15 175 1.6 9.7 0.00 0.00 0.00 92 1005.9
20260507023044 15 127 0.0 9.7 0.00 0.00 0.00 92 1006.0
20260507022529 15 5 1.6 8.0 0.00 0.00 0.00 92 1005.9
20260507022029 15 126 0.0 8.0 0.00 0.00 0.00 92 1006.0
20260507021552 15 174 1.6 11.3 0.00 0.00 0.00 92 1006.0
20260507021033 15 151 1.6 11.3 0.00 0.00 0.00 91 1006.0
20260507020530 15 152 1.6 9.7 0.00 0.00 0.00 92 1005.9
20260507020054 15 151 1.6 9.7 0.00 0.00 0.00 91 1005.9
20260507015530 15 0 1.6 6.4 0.00 0.00 0.00 91 1005.9
20260507015029 15 0 1.6 6.4 0.00 0.00 0.00 91 1006.0
20260507014552 15 228 1.6 9.7 0.00 0.00 0.00 91 1006.1
20260507014030 15 22 0.0 9.7 0.00 0.00 0.00 91 1006.0
20260507013530 15 207 1.6 6.4 0.00 0.00 0.00 91 1006.1
20260507013043 15 67 1.6 11.3 0.00 0.00 0.00 91 1006.0
20260507012532 15 305 3.2 12.9 0.00 0.00 0.00 91 1006.0
20260507012028 15 154 3.2 12.9 0.00 0.00 0.00 91 1006.2
20260507011549 15 192 1.6 11.3 0.00 0.00 0.00 91 1006.1
20260507011031 15 134 1.6 11.3 0.00 0.00 0.00 91 1006.2
20260507010529 15 153 0.0 11.3 0.00 0.00 0.00 91 1006.2
20260507010046 15 161 1.6 11.3 0.00 0.00 0.00 91 1006.2
20260507005530 15 153 1.6 6.4 0.00 0.00 0.00 91 1006.3
20260507005034 15 153 0.0 16.1 0.00 0.00 0.00 91 1006.3
20260507004543 15 182 3.2 19.3 0.00 0.00 0.00 91 1006.2
20260507004031 15 0 1.6 19.3 0.00 0.00 0.00 91 1006.2
20260507003531 15 169 3.2 11.3 0.00 0.00 0.00 91 1006.1
20260507003042 15 0 3.2 11.3 0.00 0.00 0.00 91 1006.2
20260507002529 15 124 0.0 11.3 0.00 0.00 0.00 91 1006.2
20260507002030 15 204 3.2 11.3 0.00 0.00 0.00 90 1006.2
20260507001541 15 0 1.6 6.4 0.00 0.00 0.00 90 1006.2
20260507001028 15 205 0.0 8.0 0.00 0.00 0.00 90 1006.2
20260507000528 15 136 1.6 12.9 0.00 0.00 0.00 90 1005.9
20260507000040 15 149 3.2 12.9 0.00 0.00 0.00 90 1006.0
20260506235529 15 155 3.2 11.3 0.00 0.00 0.00 90 1006.0
20260506235028 15 0 1.6 11.3 0.00 0.00 0.00 90 1006.1
20260506234553 15 196 3.2 11.3 0.00 0.00 0.00 90 1006.1
20260506234034 15 172 0.0 9.7 0.00 0.00 0.00 90 1006.0
20260506233531 15 0 1.6 12.9 0.00 0.00 0.00 90 1006.1
20260506233049 15 0 1.6 14.5 0.00 0.00 0.00 90 1006.1
20260506232532 15 205 0.0 14.5 0.00 0.00 0.00 90 1006.1
20260506232030 15 0 1.6 16.1 0.00 0.00 0.00 90 1006.0
20260506231554 15 248 0.0 16.1 0.00 0.00 0.00 90 1006.0
20260506231029 15 163 3.2 16.1 0.00 0.00 0.00 89 1006.1
20260506230531 15 163 3.2 11.3 0.00 0.00 0.00 89 1006.2
20260506230042 15 173 1.6 11.3 0.00 0.00 0.00 89 1006.1
20260506225529 15 155 1.6 11.3 0.00 0.00 0.00 89 1006.2
20260506225032 16 178 1.6 11.3 0.00 0.00 0.00 89 1006.2
20260506224544 16 235 1.6 11.3 0.00 0.00 0.00 89 1006.2
20260506224029 16 62 1.6 9.7 0.00 0.00 0.00 89 1006.2
20260506223535 16 208 1.6 9.7 0.00 0.00 0.00 89 1006.3
20260506223042 16 198 1.6 16.1 0.00 0.00 0.00 89 1006.5
20260506222530 16 0 1.6 16.1 0.00 0.00 0.00 88 1006.4
20260506222027 16 200 1.6 16.1 0.00 0.00 0.00 88 1006.5
20260506221545 16 0 1.6 8.0 0.00 0.00 0.00 88 1006.5
20260506221033 16 219 1.6 11.3 0.00 0.00 0.00 87 1006.6
20260506220530 16 0 1.6 11.3 0.00 0.00 0.00 87 1006.5
20260506220043 16 180 0.0 19.3 0.00 0.00 0.00 87 1006.5
20260506215529 16 175 3.2 19.3 0.00 0.00 0.00 86 1006.8
20260506215029 16 182 4.8 19.3 0.00 0.00 0.00 86 1006.8
20260506214545 16 234 3.2 16.1 0.00 0.00 0.00 86 1006.7
20260506214032 16 290 3.2 16.1 0.00 0.00 0.00 86 1006.9
20260506213533 16 180 3.2 11.3 0.00 0.00 0.00 87 1007.0
20260506213043 16 225 0.0 9.7 0.00 0.00 0.00 87 1006.9
20260506212528 16 87 1.6 9.7 0.00 0.00 0.00 86 1007.0
20260506212029 16 140 3.2 17.7 0.00 0.00 0.00 86 1007.0
20260506211541 16 0 3.2 17.7 0.00 0.00 0.00 86 1007.0
20260506211029 16 232 4.8 14.5 0.00 0.00 0.00 86 1007.0
20260506210529 16 128 1.6 11.3 0.00 0.00 0.00 86 1007.0
20260506210048 16 234 1.6 12.9 0.00 0.00 0.00 86 1007.0
20260506205533 16 144 3.2 16.1 0.00 0.00 0.00 85 1007.1
20260506205028 16 198 4.8 16.1 0.00 0.00 0.00 85 1007.2
20260506204544 16 180 1.6 9.7 0.00 0.00 0.00 85 1007.3
20260506204031 16 159 3.2 12.9 0.00 0.00 0.00 84 1007.3
20260506203532 16 171 1.6 14.5 0.00 0.00 0.00 84 1007.2
20260506203043 16 198 4.8 14.5 0.00 0.00 0.00 84 1007.3
20260506202530 17 204 1.6 4.8 0.00 0.00 0.00 84 1007.2
20260506202031 17 0 0.0 14.5 0.00 0.00 0.00 84 1007.2
20260506201542 17 234 3.2 14.5 0.00 0.00 0.00 83 1007.2
20260506201029 17 188 3.2 11.3 0.00 0.00 0.00 83 1007.1
20260506200529 17 258 0.0 11.3 0.00 0.00 0.00 83 1007.1
20260506200042 17 111 3.2 11.3 0.00 0.00 0.00 82 1006.9
20260506195533 17 191 1.6 14.5 0.00 0.00 0.00 81 1007.1
20260506195032 17 0 3.2 14.5 0.00 0.00 0.00 80 1007.0
20260506194547 18 140 3.2 9.7 0.00 0.00 0.00 79 1007.1
20260506194034 18 211 1.6 14.5 0.00 0.00 0.00 78 1007.4
20260506193529 18 171 1.6 14.5 0.00 0.00 0.00 77 1007.4
20260506193045 19 161 3.2 14.5 0.00 0.00 0.00 76 1007.3
20260506192530 19 223 0.0 8.0 0.00 0.00 0.00 75 1007.3
20260506192033 19 17 0.0 9.7 0.00 0.00 0.00 73 1007.2
20260506191542 20 140 1.6 12.9 0.00 0.00 0.00 71 1007.3
20260506191030 20 0 3.2 12.9 0.00 0.00 0.00 69 1007.1
20260506190530 20 177 3.2 12.9 0.00 0.00 0.00 69 1007.1
20260506190042 20 155 3.2 12.9 0.00 0.00 0.00 69 1007.2
20260506185530 20 220 1.6 11.3 0.00 0.00 0.00 68 1007.2
20260506185029 20 251 3.2 12.9 0.00 0.00 0.00 67 1007.2
20260506184550 21 184 3.2 12.9 0.00 0.00 0.00 66 1007.3
20260506184030 21 0 1.6 17.7 0.00 0.00 0.00 64 1007.2
20260506183530 21 242 4.8 17.7 0.00 0.00 0.00 62 1007.3
20260506183047 21 41 3.2 12.9 0.00 0.00 0.00 61 1007.3
20260506182528 21 159 1.6 9.7 0.00 0.00 0.00 61 1007.2
20260506182029 21 166 1.6 9.7 0.00 0.00 0.00 62 1007.3
20260506181541 21 0 1.6 12.9 0.00 0.00 0.00 61 1007.4
20260506181029 21 14 1.6 16.1 0.00 0.00 0.00 61 1007.3
20260506180530 22 147 3.2 17.7 0.00 0.00 0.00 61 1007.4
20260506180046 22 122 4.8 17.7 0.00 0.00 0.00 60 1007.4
20260506175531 22 209 3.2 17.7 0.00 0.00 0.00 60 1007.5
20260506175029 22 211 4.8 17.7 0.00 0.00 0.00 60 1007.4
20260506174545 22 0 6.4 14.5 0.00 0.00 0.00 60 1007.6
20260506174032 22 203 1.6 12.9 0.00 0.00 0.00 61 1007.5
20260506173529 22 207 4.8 14.5 0.00 0.00 0.00 61 1007.7
20260506173121 22 261 6.4 14.5 0.00 0.00 0.00 59 1007.8
20260506172530 22 149 3.2 11.3 0.00 0.00 0.00 61 1007.6
20260506172030 22 227 3.2 19.3 0.00 0.00 0.00 61 1007.8
20260506171556 22 217 3.2 20.9 0.00 0.00 0.00 60 1007.7
20260506171033 22 240 3.2 20.9 0.00 0.00 0.00 61 1007.7
20260506170529 21 229 4.8 20.9 0.00 0.00 0.00 61 1007.8
20260506170045 21 137 3.2 14.5 0.00 0.00 0.00 62 1008.0
20260506165529 21 161 3.2 14.5 0.00 0.00 0.00 62 1008.0
20260506165030 21 196 1.6 11.3 0.00 0.00 0.00 62 1008.1
20260506164541 21 90 4.8 9.7 0.00 0.00 0.00 62 1008.1
20260506164029 21 132 1.6 24.1 0.00 0.00 0.00 62 1008.3
20260506163532 21 198 3.2 24.1 0.00 0.00 0.00 61 1008.4
20260506163043 21 9 6.4 19.3 0.00 0.00 0.00 60 1008.5
20260506162530 22 212 4.8 14.5 0.00 0.00 0.00 60 1008.6
20260506162033 22 276 4.8 16.1 0.00 0.00 0.00 61 1008.5
20260506161544 22 190 4.8 16.1 0.00 0.00 0.00 60 1008.8
20260506161029 22 136 3.2 14.5 0.00 0.00 0.00 60 1008.7
20260506160529 22 205 1.6 17.7 0.00 0.00 0.00 60 1008.9
20260506160046 22 75 3.2 19.3 0.00 0.00 0.00 59 1008.9
20260506155529 22 138 4.8 19.3 0.00 0.00 0.00 60 1008.9
20260506155029 22 240 3.2 14.5 0.00 0.00 0.00 60 1009.0
20260506154550 22 217 3.2 14.5 0.00 0.00 0.00 60 1009.2
20260506154031 22 182 4.8 16.1 0.00 0.00 0.00 59 1009.3
20260506153530 22 182 3.2 17.7 0.00 0.00 0.00 60 1009.3
20260506153046 22 154 6.4 19.3 0.00 0.00 0.00 59 1009.4
20260506152529 22 208 4.8 19.3 0.00 0.00 0.00 60 1009.5
20260506152028 22 144 3.2 16.1 0.00 0.00 0.00 60 1009.5
20260506151549 22 163 3.2 16.1 0.00 0.00 0.00 61 1009.5
20260506151030 22 165 3.2 22.5 0.00 0.00 0.00 62 1009.4
20260506150533 22 175 4.8 22.5 0.00 0.00 0.00 62 1009.6
20260506150045 21 35 4.8 14.5 0.00 0.00 0.00 63 1009.7
20260506145530 21 249 6.4 14.5 0.00 0.00 0.00 63 1009.8
20260506145029 21 226 0.0 9.7 0.00 0.00 0.00 65 1009.7
20260506144543 21 201 1.6 11.3 0.00 0.00 0.00 64 1009.7
20260506144029 21 170 3.2 16.1 0.00 0.00 0.00 66 1009.6
20260506143530 21 192 4.8 16.1 0.00 0.00 0.00 66 1009.5
20260506143044 20 229 3.2 12.9 0.00 0.00 0.00 66 1009.6
20260506142529 20 273 3.2 12.9 0.00 0.00 0.00 66 1009.6
20260506142029 20 161 3.2 12.9 0.00 0.00 0.00 66 1009.5
20260506141541 20 153 3.2 12.9 0.00 0.00 0.00 69 1009.7
20260506141029 20 11 3.2 12.9 0.00 0.00 0.00 68 1009.6
20260506140529 20 150 3.2 12.9 0.00 0.00 0.00 69 1009.7
20260506140042 20 233 3.2 12.9 0.00 0.00 0.00 70 1009.8
20260506135530 19 150 3.2 8.0 0.00 0.00 0.00 70 1009.8
20260506135032 19 275 0.0 12.9 0.00 0.00 0.00 72 1009.7
20260506134545 18 121 3.2 17.7 0.00 0.00 0.00 72 1009.8
20260506134029 18 203 3.2 17.7 0.00 0.00 0.00 72 1010.0
20260506133529 18 97 3.2 9.7 0.00 0.00 0.00 73 1010.2
20260506133042 18 177 3.2 8.0 0.00 0.00 0.00 73 1010.2
20260506132533 18 233 1.6 8.0 0.00 0.00 0.00 73 1010.3
20260506132032 18 210 3.2 8.0 0.00 0.00 0.00 72 1010.2
20260506131549 18 223 1.6 11.3 0.00 0.00 0.00 73 1010.3
20260506131030 18 167 1.6 11.3 0.00 0.00 0.00 73 1010.2
20260506130529 18 161 3.2 12.9 0.00 0.00 0.00 72 1010.1
20260506130057 18 88 1.6 16.1 0.00 0.00 0.00 72 1010.2
20260506125532 18 162 1.6 17.7 0.00 0.00 0.00 72 1010.2
20260506125033 18 0 4.8 17.7 0.00 0.00 0.00 71 1010.1
20260506124547 18 167 3.2 14.5 0.00 0.00 0.00 73 1010.0
20260506124029 18 229 1.6 12.9 0.00 0.00 0.00 77 1010.2
20260506123529 17 177 1.6 14.5 0.00 0.00 0.00 77 1010.4
20260506123048 17 176 4.8 14.5 0.00 0.00 0.00 76 1010.4
20260506122528 17 225 3.2 12.9 0.00 0.00 0.00 76 1010.6
20260506122028 17 173 3.2 12.9 0.00 0.00 0.00 76 1010.3
20260506121544 17 238 1.6 14.5 0.00 0.00 0.00 77 1010.2
20260506121032 17 151 3.2 14.5 0.00 0.00 0.00 78 1010.2
20260506120531 16 236 3.2 14.5 0.00 0.00 0.00 77 1010.3
20260506120043 16 157 1.6 9.7 0.00 0.00 0.00 78 1010.5
20260506115530 16 153 1.6 11.3 0.00 0.00 0.00 78 1010.5
20260506115029 16 175 1.6 12.9 0.00 0.00 0.00 78 1010.6
20260506114541 16 190 1.6 12.9 0.00 0.00 0.00 78 1010.5
20260506114029 16 144 3.2 12.9 0.00 0.00 0.00 78 1010.7
20260506113528 16 138 1.6 8.0 0.00 0.00 0.00 78 1010.9
20260506113050 16 0 1.6 8.0 0.00 0.00 0.00 78 1010.8
20260506112529 16 259 1.6 11.3 0.00 0.00 0.00 78 1010.9
20260506112029 16 176 1.6 11.3 0.00 0.00 0.00 79 1010.5
20260506111547 16 226 3.2 11.3 0.00 0.00 0.00 79 1010.6
20260506111029 16 159 0.0 8.0 0.00 0.00 0.00 80 1010.6
20260506110531 16 152 0.0 12.9 0.00 0.00 0.00 80 1010.6
20260506110053 16 0 0.0 14.5 0.00 0.00 0.00 81 1010.6
20260506105529 15 174 3.2 14.5 0.00 0.00 0.00 80 1010.4
20260506105031 15 0 1.6 9.7 0.00 0.00 0.00 80 1010.5
20260506104551 15 177 1.6 12.9 0.00 0.00 0.00 80 1010.6
20260506104029 15 211 0.0 12.9 0.00 0.00 0.00 80 1010.7
20260506103529 15 217 1.6 9.7 0.00 0.00 0.00 80 1010.7
20260506103048 15 178 1.6 8.0 0.00 0.00 0.00 80 1010.8
20260506102530 15 186 1.6 6.4 0.00 0.00 0.00 80 1010.6
20260506102030 15 199 0.0 8.0 0.00 0.00 0.00 80 1010.6
20260506101551 15 0 1.6 14.5 0.00 0.00 0.00 80 1010.6
20260506101029 15 198 1.6 14.5 0.00 0.00 0.00 80 1010.5
20260506100529 15 211 1.6 11.3 0.00 0.00 0.00 80 1010.6
20260506095529 15 193 1.6 12.9 0.00 0.00 0.00 80 1010.4
20260506095033 15 217 1.6 9.7 0.00 0.00 0.00 80 1010.2
20260506094549 15 184 1.6 9.7 0.00 0.00 0.00 79 1010.3
20260506094027 15 171 1.6 9.7 0.00 0.00 0.00 79 1010.4
20260506093526 15 272 3.2 9.7 0.00 0.00 0.00 79 1010.4
20260506093047 15 176 1.6 14.5 0.00 0.00 0.00 78 1010.4
20260506092530 16 190 3.2 14.5 0.00 0.00 0.00 78 1010.4
20260506092029 16 168 1.6 8.0 0.00 0.00 0.00 78 1010.4
20260506091541 16 163 1.6 8.0 0.00 0.00 0.00 78 1010.4
20260506091037 16 140 1.6 9.7 0.00 0.00 0.00 77 1010.3
20260506090530 16 175 1.6 9.7 0.00 0.00 0.00 77 1010.4
20260506090042 16 181 1.6 8.0 0.00 0.00 0.00 77 1010.4